Home   Weather   Chorzów   Past weeks

Flag for Poland Past Weather in Chorzów, Poland — Yesterday and Last 2 Weeks

Now
18 °F

Ice fog.


Feels Like: 11 °F
Forecast: 14 / 23 °F
Wind: 5 mph from South

Location: Katowice Airport

Current Time: Jan 23, 2017 at 5:19:48 am

Latest Report: Jan 23, 2017 at 5:00 am


Visibility: 2 mi

Pressure: 30.30 "Hg

Humidity: 86%

Dew Point: 14 °F

Location of ChorzówLocation

Past Weather in Chorzów — Graph

°F

Chorzów Temperature Yesterday

Maximum temperature yesterday: 37 °F (at 1:30 pm)
Minimum temperature yesterday: 23 °F (at 9:00 pm)
Average temperature yesterday: 30 °F

High & Low Weather Summary for the Past Weeks

 TemperatureHumidityPressure
High39 °F (Jan 13, 11:30 am)100% (Jan 15, 5:30 am)30.69 "Hg (Jan 15, 5:30 am)
Low-15 °F (Jan 8, 8:00 am)46% (Jan 9, 2:00 pm)29.30 "Hg (Jan 13, 2:00 pm)
Average22 °F84%30.16 "Hg
* Reported Jan 8 4:00 am — Jan 23 4:00 am, Chorzów, Weather by CustomWeather, © 2017

Note: Actual official high and low records may vary slightly from our data, if they occured in-between our weather recording intervals... More about our weather records

Advertising

Chorzów Weather History for the Previous 24 Hours

Scroll right to see more
 ConditionsComfort  
Time TempWeatherWind HumidityBarometerVisibility
4:00 am
Mon, Jan 23
16 °FIce fog.6 mph93%30.30 "Hg2 mi
3:30 am21 °FIce fog.6 mph86%30.30 "Hg2 mi
3:00 am19 °FIce fog.7 mph93%30.33 "Hg2 mi
2:30 am19 °FIce fog.7 mph93%30.33 "Hg1 mi
2:00 am18 °FIce fog.6 mph93%30.33 "Hg1 mi
1:30 am18 °FIce fog.6 mph93%30.33 "Hg1 mi
1:00 am21 °FCold.3 mph100%30.36 "Hg1 mi
12:30 am23 °FSleet. Overcast.5 mph100%30.36 "Hg1 mi
12:00 am25 °FCold.5 mph93%30.36 "Hg1 mi
11:30 pm
Sun, Jan 22
23 °FCold.5 mph100%30.36 "Hg1 mi
11:00 pm25 °FLight fog.6 mph93%30.36 "Hg1 mi
10:30 pm25 °FCold.5 mph93%30.36 "Hg1 mi
10:00 pm27 °FLight fog.5 mph93%30.36 "Hg1 mi
9:30 pm23 °FIce fog.1 mph93%30.36 "Hg0 mi
9:00 pm23 °FLight fog.2 mph93%30.39 "Hg0 mi
8:30 pm25 °FIce fog.3 mph93%30.39 "Hg1 mi
8:00 pm27 °FIce fog.5 mph93%30.39 "Hg1 mi
7:30 pm28 °FIce fog.2 mph86%30.39 "Hg2 mi
7:00 pm28 °FIce fog.7 mph86%30.39 "Hg2 mi
6:30 pm28 °FIce fog.6 mph86%30.39 "Hg2 mi
6:00 pm30 °FIce fog.7 mph86%30.39 "Hg2 mi
5:30 pm30 °FIce fog.6 mph80%30.39 "Hg2 mi
5:00 pm32 °FIce fog.5 mph75%30.39 "Hg3 mi
4:30 pm34 °FHaze.6 mph70%30.39 "Hg3 mi
4:00 pm36 °FClear.6 mph60%30.39 "Hg4 mi
3:30 pm37 °FClear.6 mph60%30.39 "Hg6 mi
3:00 pm36 °FPassing clouds.6 mph65%30.39 "HgN/A
2:30 pm37 °FSunny.7 mph60%30.42 "Hg10 mi
2:00 pm37 °FSunny.7 mph60%30.42 "Hg10 mi
1:30 pm37 °FSunny.7 mph60%30.42 "Hg10 mi
1:00 pm36 °FClear.7 mph70%30.42 "Hg6 mi
12:30 pm36 °FClear.6 mph70%30.42 "Hg6 mi
12:00 pm34 °FClear.7 mph75%30.45 "Hg5 mi
11:30 am34 °FClear.9 mph81%30.45 "Hg4 mi
11:00 am34 °FClear.10 mph81%30.45 "Hg4 mi
10:30 am32 °FClear.9 mph80%30.48 "Hg4 mi
10:00 am32 °FClear.9 mph80%30.48 "Hg5 mi
9:30 am32 °FClear.7 mph80%30.48 "Hg4 mi
9:00 am32 °FPassing clouds.7 mph80%30.48 "Hg4 mi
8:30 am32 °FOvercast.8 mph80%30.48 "Hg4 mi
8:00 am32 °FOvercast.8 mph80%30.48 "Hg5 mi
7:30 am30 °FOvercast.8 mph86%30.48 "Hg5 mi
7:00 am30 °FOvercast.8 mph86%30.48 "Hg6 mi
6:30 am30 °FMostly cloudy.9 mph86%30.45 "HgN/A
6:00 am30 °FMostly cloudy.10 mph86%30.45 "HgN/A
5:30 am30 °FMostly cloudy.5 mph86%30.45 "Hg6 mi
5:00 am30 °FOvercast.8 mph86%30.45 "Hg5 mi
Weather by CustomWeather, © 2017

See weather overviewHow to use our weather pages